sat.trackr.live / text

‹ back to catalog

ONEWEB-0203

NORAD 48235 · 2021-031AB

PAYLOAD ACTIVE UNKNOWN

§ Identity

Operator
Country
UK
Launch date
2021-04-25
Launch site
VOSTO
Launch vehicle
Mass (kg)
RCS (m²)

Purposes: comms

External: N2YO · Heavens-Above · Gunter

§ Orbital elements

Epoch: 2026-05-25T02:41:27.034080Z

Period
109.55 min
Inclination
87.8955°
Eccentricity
0.0001703
Mean motion
13.14501414 rev/d
Perigee alt
1,204.5 km
Apogee alt
1,207.1 km
Semi-major
7,583.9 km
B*
2.2558e-4
RAAN
294.3006°
Arg perigee
93.9658°
Mean anomaly
266.1666°
Rev number
24,524

§ Raw data

ONEWEB-02031 48235U 21031AB  26145.11211845  .00000096  00000+0  22558-3 0  99992 48235  87.8955 294.3006 0001703  93.9658 266.1666 13.14501414245245

JSON: /api/v1/satellites/48235 · /tle

For live sub-satellite position, see the globe view (requires WebGL).

§ Visibility from observer

Set your observer location to see the next 7 days of passes ≥ 10°. The values pass through the URL so the page stays shareable.

No JS? Fill the form by hand. The geolocation button needs JavaScript.